Change the Weather History Date:

Saturday, November 30, 2013

  Actual Average Record
Temperature  
Mean Temperature 36 °F 34 °F  
Max Temperature 46 °F 40 °F 63 °F (1998)
Min Temperature 26 °F 28 °F -1 °F (1867)
Degree Days  
Heating Degree Days 29 31  
Month to date heating degree days 844 764  
Since 1 July heating degree days 1446 1414  
Cooling Degree Days 0 0  
Month to date cooling degree days 0 0  
Year to date cooling degree days 661 625  
Moisture  
Dew Point 23 °F    
Average Humidity 60    
Maximum Humidity 75    
Minimum Humidity 45    
Precipitation  
Precipitation 0.00 in 0.08 in 1.11 in (2006)
Month to date precipitation 2.13 2.78  
Year to date precipitation 39.58 29.90  
Snow  
Snow 0.00 in 0.20 in 3.30 in (1940)
Month to date snowfall 0.7 3.4  
Since 1 July snowfall 0.7 3.8  
Since 1 September snowfall 0.7 3.8  
Snow Depth 0.00 in    
Sea Level Pressure  
Sea Level Pressure 30.28 in    
Wind  
Wind Speed 10 mph (South)    
Max Wind Speed 18 mph    
Max Gust Speed 23 mph    
Visibility 10 miles    
Events      
T = Trace of Precipitation, MM = Missing Value Source: NWS Daily Summary

Daily Weather History Graph

Daily Weather History Graph

Search for Another Location

Airport or City:

Trip Planner

Search our weather history database for the weather conditions in past years. The results will help you decide how hot, cold, wet, or windy it might be!

Date:

Astronomy

Nov. 30, 2013 Rise Set
Actual Time 7:48 AM EST 5:05 PM EST
Civil Twilight 7:16 AM EST 5:37 PM EST
Nautical Twilight 6:41 AM EST 6:12 PM EST
Astronomical Twilight 6:07 AM EST 6:46 PM EST
Moon 4:55 AM EST (11/30) 3:31 PM EST (11/30)
Length of Visible Light 10h 20m
Length of Day
9h 17m
Waning Crescent, 7% of the Moon is Illuminated
Nov 30
Waning Crescent
Dec 2
New
Dec 9
First Quarter
Dec 17
Full
Dec 25
Last Quarter

Hourly Weather History & Observations

Time (EST) Temp. Windchill Dew Point Humidity Pressure Visibility Wind Dir Wind Speed Gust Speed Precip Events Conditions
12:53 AM 27.0 °F 18.7 °F 19.9 °F 75% 30.53 in 10.0 mi SSE 8.1 mph - N/A   Partly Cloudy
1:53 AM 27.0 °F 18.0 °F 19.9 °F 75% 30.50 in 10.0 mi SSE 9.2 mph - N/A   Mostly Cloudy
2:53 AM 28.0 °F 18.6 °F 19.0 °F 69% 30.48 in 10.0 mi SSE 10.4 mph - N/A   Overcast
3:53 AM 28.9 °F 21.1 °F 19.0 °F 67% 30.45 in 10.0 mi South 8.1 mph - N/A   Overcast
4:53 AM 28.9 °F 19.8 °F 19.0 °F 67% 30.43 in 10.0 mi SSE 10.4 mph - N/A   Scattered Clouds
5:53 AM 28.9 °F 19.8 °F 19.0 °F 67% 30.42 in 10.0 mi South 10.4 mph - N/A   Overcast
6:53 AM 28.9 °F 21.1 °F 19.9 °F 69% 30.41 in 10.0 mi South 8.1 mph - N/A   Mostly Cloudy
7:53 AM 28.0 °F 20.8 °F 19.9 °F 72% 30.39 in 9.0 mi South 6.9 mph - N/A   Clear
8:53 AM 28.9 °F 20.4 °F 19.9 °F 69% 30.37 in 8.0 mi South 9.2 mph - N/A   Clear
9:53 AM 30.9 °F 23.5 °F 21.0 °F 67% 30.34 in 8.0 mi South 8.1 mph - N/A   Clear
10:53 AM 36.0 °F 29.0 °F 23.0 °F 59% 30.32 in 9.0 mi South 9.2 mph - N/A   Clear
11:53 AM 39.9 °F 31.8 °F 24.1 °F 53% 30.27 in 10.0 mi SSW 15.0 mph 21.9 mph N/A   Clear
12:53 PM 43.0 °F 36.4 °F 25.0 °F 49% 30.22 in 10.0 mi South 12.7 mph - N/A   Clear
1:53 PM 45.0 °F 38.9 °F 26.1 °F 48% 30.19 in 10.0 mi SSW 12.7 mph 23.0 mph N/A   Scattered Clouds
2:53 PM 46.0 °F 40.6 °F 26.1 °F 46% 30.16 in 10.0 mi SW 11.5 mph - N/A   Scattered Clouds
3:53 PM 45.0 °F 39.3 °F 27.0 °F 49% 30.14 in 10.0 mi SSW 11.5 mph - N/A   Clear
4:53 PM 43.0 °F 37.2 °F 27.0 °F 53% 30.14 in 10.0 mi SSW 10.4 mph - N/A   Clear
5:53 PM 39.0 °F 34.8 °F 27.0 °F 62% 30.13 in 10.0 mi South 5.8 mph - N/A   Partly Cloudy
6:53 PM 39.0 °F 33.4 °F 27.0 °F 62% 30.12 in 10.0 mi South 8.1 mph - N/A   Clear
7:53 PM 39.0 °F 34.0 °F 27.0 °F 62% 30.12 in 10.0 mi South 6.9 mph - N/A   Clear
8:53 PM 39.0 °F 32.3 °F 27.0 °F 62% 30.10 in 10.0 mi South 10.4 mph - N/A   Clear
9:53 PM 39.0 °F 32.8 °F 27.0 °F 62% 30.09 in 10.0 mi South 9.2 mph - N/A   Overcast
10:53 PM 39.9 °F 32.9 °F 27.0 °F 60% 30.10 in 10.0 mi SW 11.5 mph - N/A   Overcast
11:53 PM 39.0 °F 32.8 °F 27.0 °F 62% 30.09 in 10.0 mi SSW 9.2 mph - N/A   Overcast